| time (UTC) | temp F | wind direction | speed knots | gust knots | rain 1hr in | rain 24hr in | rain mn in | humidity % | barometer mb |
| 20260509231557 | 65 | 48 | 1.7 | 5.2 | 0.00 | 0.00 | 0.00 | 36 | 1005.9 |
| 20260509230053 | 65 | 275 | 0.9 | 7.8 | 0.00 | 0.00 | 0.00 | 36 | 1005.7 |
| 20260509224554 | 65 | 302 | 0.9 | 4.3 | 0.00 | 0.00 | 0.00 | 35 | 1005.5 |
| 20260509223051 | 66 | 271 | 0.9 | 8.7 | 0.00 | 0.00 | 0.00 | 35 | 1005.4 |
| 20260509221608 | 66 | 347 | 3.5 | 7.8 | 0.00 | 0.00 | 0.00 | 33 | 1005.0 |
| 20260509214551 | 66 | 273 | 1.7 | 9.6 | 0.00 | 0.00 | 0.00 | 34 | 1004.6 |
| 20260509213053 | 67 | 310 | 2.6 | 8.7 | 0.00 | 0.00 | 0.00 | 35 | 1004.3 |
| 20260509211554 | 67 | 348 | 2.6 | 9.6 | 0.00 | 0.00 | 0.00 | 35 | 1004.0 |
| 20260509210059 | 67 | 39 | 3.5 | 9.6 | 0.00 | 0.00 | 0.00 | 36 | 1004.1 |
| 20260509204559 | 67 | 292 | 0.9 | 9.6 | 0.00 | 0.00 | 0.00 | 37 | 1003.8 |
| 20260509203055 | 68 | 257 | 3.5 | 8.7 | 0.00 | 0.00 | 0.00 | 37 | 1003.5 |
| 20260509201558 | 69 | 291 | 4.3 | 10.4 | 0.00 | 0.00 | 0.00 | 35 | 1003.5 |
| 20260509200105 | 68 | 302 | 2.6 | 8.7 | 0.00 | 0.00 | 0.00 | 35 | 1003.2 |
| 20260509194556 | 69 | 276 | 8.7 | 16.5 | 0.00 | 0.00 | 0.00 | 31 | 1002.9 |
| 20260509193108 | 69 | 278 | 10.4 | 18.2 | 0.00 | 0.00 | 0.00 | 31 | 1002.7 |
| 20260509191612 | 69 | 251 | 8.7 | 20.0 | 0.00 | 0.00 | 0.00 | 32 | 1002.6 |
| 20260509190112 | 69 | 274 | 6.1 | 13.9 | 0.00 | 0.00 | 0.00 | 35 | 1002.4 |
| 20260509184555 | 70 | 277 | 6.1 | 15.6 | 0.00 | 0.00 | 0.00 | 33 | 1002.2 |
| 20260509183054 | 69 | 285 | 3.5 | 15.6 | 0.00 | 0.00 | 0.00 | 35 | 1002.0 |
| 20260509181555 | 69 | 297 | 3.5 | 12.2 | 0.00 | 0.00 | 0.00 | 33 | 1002.0 |
| 20260509180054 | 68 | 262 | 7.8 | 12.2 | 0.00 | 0.00 | 0.00 | 34 | 1001.9 |
| 20260509174554 | 68 | 269 | 7.8 | 13.0 | 0.00 | 0.00 | 0.00 | 33 | 1001.9 |
| 20260509173104 | 68 | 252 | 6.1 | 12.2 | 0.00 | 0.00 | 0.00 | 33 | 1002.1 |
| 20260509171606 | 67 | 315 | 7.0 | 17.4 | 0.00 | 0.00 | 0.00 | 34 | 1002.2 |
| 20260509170055 | 66 | 285 | 9.6 | 21.7 | 0.00 | 0.00 | 0.00 | 34 | 1002.3 |
| 20260509164556 | 64 | 253 | 7.0 | 12.2 | 0.00 | 0.00 | 0.00 | 37 | 1002.5 |
| 20260509163059 | 63 | 276 | 3.5 | 11.3 | 0.00 | 0.00 | 0.00 | 38 | 1002.7 |
| 20260509161553 | 62 | 287 | 4.3 | 9.6 | 0.00 | 0.00 | 0.00 | 38 | 1002.8 |
| 20260509160054 | 63 | 292 | 2.6 | 9.6 | 0.00 | 0.00 | 0.00 | 38 | 1003.1 |
| 20260509154552 | 62 | 276 | 2.6 | 6.1 | 0.00 | 0.00 | 0.00 | 37 | 1003.1 |
| 20260509153049 | 63 | 250 | 5.2 | 12.2 | 0.00 | 0.00 | 0.00 | 37 | 1003.0 |
| 20260509151558 | 63 | 249 | 4.3 | 7.8 | 0.00 | 0.00 | 0.00 | 42 | 1002.9 |
| 20260509150054 | 61 | 285 | 2.6 | 7.8 | 0.00 | 0.00 | 0.00 | 45 | 1002.5 |
| 20260509144553 | 61 | 273 | 3.5 | 6.1 | 0.00 | 0.00 | 0.00 | 47 | 1002.1 |
| 20260509143049 | 61 | 285 | 3.5 | 5.2 | 0.00 | 0.00 | 0.00 | 49 | 1002.0 |
| 20260509141554 | 60 | 271 | 2.6 | 5.2 | 0.00 | 0.00 | 0.00 | 53 | 1002.2 |
| 20260509140054 | 60 | 277 | 2.6 | 5.2 | 0.00 | 0.00 | 0.00 | 53 | 1002.0 |
| 20260509134601 | 60 | 257 | 2.6 | 7.8 | 0.00 | 0.00 | 0.00 | 54 | 1001.8 |
| 20260509133053 | 59 | 270 | 5.2 | 8.7 | 0.00 | 0.00 | 0.00 | 55 | 1001.9 |
| 20260509131609 | 58 | 281 | 4.3 | 8.7 | 0.00 | 0.00 | 0.00 | 60 | 1002.0 |
| 20260509130104 | 58 | 280 | 5.2 | 11.3 | 0.00 | 0.00 | 0.00 | 61 | 1001.8 |
| 20260509124551 | 58 | 269 | 1.7 | 7.8 | 0.00 | 0.00 | 0.00 | 66 | 1001.6 |
| 20260509123101 | 57 | 240 | 2.6 | 7.0 | 0.00 | 0.00 | 0.00 | 69 | 1001.6 |
| 20260509121552 | 56 | 229 | 2.6 | 7.0 | 0.00 | 0.00 | 0.00 | 75 | 1001.6 |
| 20260509120051 | 55 | 285 | 3.5 | 6.1 | 0.00 | 0.00 | 0.00 | 78 | 1001.7 |
| 20260509114608 | 54 | 285 | 3.5 | 6.1 | 0.00 | 0.00 | 0.00 | 80 | 1001.5 |
| 20260509113105 | 53 | 253 | 3.5 | 5.2 | 0.00 | 0.00 | 0.00 | 82 | 1001.4 |
| 20260509111552 | 53 | 256 | 2.6 | 5.2 | 0.00 | 0.00 | 0.00 | 83 | 1001.2 |
| 20260509110104 | 53 | 232 | 3.5 | 7.8 | 0.00 | 0.00 | 0.00 | 82 | 1001.3 |
| 20260509104600 | 53 | 266 | 2.6 | 7.8 | 0.00 | 0.00 | 0.00 | 82 | 1000.9 |
| 20260509103054 | 53 | 252 | 3.5 | 8.7 | 0.00 | 0.00 | 0.00 | 81 | 1000.7 |
| 20260509101552 | 54 | 235 | 3.5 | 7.0 | 0.00 | 0.00 | 0.00 | 81 | 1000.5 |
| 20260509100054 | 54 | 250 | 5.2 | 8.7 | 0.00 | 0.00 | 0.00 | 80 | 1000.7 |
| 20260509094610 | 54 | 237 | 3.5 | 9.6 | 0.00 | 0.00 | 0.00 | 79 | 1000.8 |
| 20260509093054 | 54 | 266 | 3.5 | 7.8 | 0.00 | 0.00 | 0.00 | 79 | 1001.2 |
| 20260509091556 | 54 | 259 | 4.3 | 8.7 | 0.00 | 0.00 | 0.00 | 78 | 1001.2 |
| 20260509084600 | 54 | 218 | 5.2 | 11.3 | 0.00 | 0.00 | 0.00 | 78 | 1001.0 |
| 20260509083052 | 54 | 255 | 6.1 | 11.3 | 0.00 | 0.00 | 0.00 | 78 | 1000.9 |
| 20260509081554 | 54 | 262 | 4.3 | 8.7 | 0.00 | 0.00 | 0.00 | 78 | 1001.1 |
| 20260509080053 | 55 | 243 | 6.1 | 9.6 | 0.00 | 0.00 | 0.00 | 77 | 1001.1 |
| 20260509074553 | 55 | 257 | 4.3 | 9.6 | 0.00 | 0.00 | 0.00 | 76 | 1001.2 |
| 20260509073051 | 55 | 235 | 5.2 | 10.4 | 0.00 | 0.00 | 0.00 | 75 | 1001.3 |
| 20260509071551 | 56 | 240 | 4.3 | 10.4 | 0.00 | 0.00 | 0.00 | 73 | 1001.3 |
| 20260509070106 | 56 | 205 | 4.3 | 11.3 | 0.00 | 0.00 | 0.00 | 71 | 1001.4 |
| 20260509064553 | 56 | 273 | 4.3 | 9.6 | 0.00 | 0.00 | 0.00 | 69 | 1001.6 |
| 20260509063052 | 57 | 257 | 5.2 | 12.2 | 0.00 | 0.00 | 0.00 | 67 | 1001.8 |
| 20260509061607 | 57 | 251 | 5.2 | 11.3 | 0.00 | 0.00 | 0.00 | 65 | 1002.0 |
| 20260509060052 | 57 | 250 | 7.0 | 12.2 | 0.00 | 0.00 | 0.00 | 62 | 1002.4 |
| 20260509054616 | 57 | 240 | 6.1 | 13.0 | 0.00 | 0.00 | 0.00 | 60 | 1002.4 |
| 20260509053142 | 57 | 207 | 3.5 | 10.4 | 0.00 | 0.00 | 0.00 | 58 | 1002.6 |
| 20260509051555 | 58 | 253 | 4.3 | 8.7 | 0.00 | 0.00 | 0.00 | 57 | 1002.8 |
| 20260509050056 | 56 | 245 | 2.6 | 6.1 | 0.00 | 0.00 | 0.00 | 62 | 1003.0 |
| 20260509044553 | 54 | 245 | 1.7 | 2.6 | 0.00 | 0.00 | 0.00 | 70 | 1003.0 |
| 20260509043057 | 53 | 240 | 0.0 | 0.9 | 0.00 | 0.00 | 0.00 | 74 | 1002.8 |
| 20260509041554 | 53 | 68 | 0.0 | 0.9 | 0.00 | 0.00 | 0.00 | 73 | 1003.0 |
| 20260509040112 | 54 | 0 | 0.0 | 1.7 | 0.00 | 0.00 | 0.00 | 72 | 1003.1 |
| 20260509034619 | 54 | 0 | 0.9 | 3.5 | 0.00 | 0.00 | 0.00 | 70 | 1003.0 |
| 20260509033055 | 54 | 0 | 0.0 | 2.6 | 0.00 | 0.00 | 0.00 | 70 | 1003.0 |
| 20260509031553 | 54 | 0 | 0.0 | 1.7 | 0.00 | 0.00 | 0.00 | 68 | 1003.0 |
| 20260509030109 | 54 | 0 | 0.0 | 0.9 | 0.00 | 0.00 | 0.00 | 66 | 1003.3 |
| 20260509024552 | 55 | 0 | 0.0 | 0.9 | 0.00 | 0.00 | 0.00 | 64 | 1003.4 |
| 20260509023054 | 55 | 96 | 0.0 | 2.6 | 0.00 | 0.00 | 0.00 | 62 | 1003.5 |
| 20260509021556 | 56 | 0 | 0.0 | 1.7 | 0.00 | 0.00 | 0.00 | 60 | 1003.5 |
| 20260509020052 | 56 | 71 | 0.0 | 0.9 | 0.00 | 0.00 | 0.00 | 59 | 1003.5 |
| 20260509014551 | 57 | 0 | 0.0 | 1.7 | 0.00 | 0.00 | 0.00 | 56 | 1003.7 |
| 20260509013109 | 58 | 0 | 0.9 | 3.5 | 0.00 | 0.00 | 0.00 | 53 | 1003.7 |
| 20260509011608 | 60 | 103 | 0.9 | 4.3 | 0.00 | 0.00 | 0.00 | 51 | 1003.8 |
| 20260509010053 | 61 | 91 | 3.5 | 7.8 | 0.00 | 0.00 | 0.00 | 44 | 1003.8 |
| 20260509004554 | 65 | 0 | 0.0 | 1.7 | 0.00 | 0.00 | 0.00 | 28 | 1003.7 |
| 20260509003113 | 66 | 246 | 0.9 | 3.5 | 0.00 | 0.00 | 0.00 | 26 | 1003.7 |
| 20260509001552 | 66 | 260 | 1.7 | 4.3 | 0.00 | 0.00 | 0.00 | 27 | 1003.7 |
| 20260509000111 | 67 | 240 | 1.7 | 7.0 | 0.00 | 0.00 | 0.00 | 29 | 1003.8 |
| 20260508234553 | 67 | 243 | 0.9 | 4.3 | 0.00 | 0.00 | 0.00 | 29 | 1003.8 |
| 20260508233054 | 67 | 243 | 4.3 | 9.6 | 0.00 | 0.00 | 0.00 | 25 | 1004.0 |